Location: Clayton (historical)
(34.0300°N, 118.0259°W)
Time: 22:52:23
(UTC+00:00)

Cosmos 1428 Rocket - Pass Details

Date: 29 October 2020
Orbit: 947 x 989 km, 82.9° (Epoch: 29 November)

Event Time Altitude Azimuth Distance (km) Brightness Sun altitude
Rises 12:43:43 0° 188° (S) 3,667 7.5 -18.3°
Reaches altitude 10° 12:46:13 10° 189° (S) 2,718 6.8 -17.8°
Maximum altitude 12:52:27 79° 276° (W) 990 4.4 -16.5°
Drops below altitude 10° 12:58:40 10° 3° (N) 2,704 6.8 -15.2°
Sets 13:01:10 0° 5° (N) 3,648 7.5 -14.7°
